Regional Weather Roundup
Issued by NWS

Home | Current Version | Previous Version | Graphics & Text | Print | Product List | Glossary On
Versions: 1 2 3 4 5 6 7 8 9 10 11 12 13 14 15 16 17 18 19 20 21 22 23 24 25 26 27 28 29 30 31 32 33 34 35 36 37 38 39 40 41 42 43 44 45 46 47 48 49 50
000
ASUS43 KFSD 251910
RWRSD

WEATHER ROUNDUP FOR SOUTH DAKOTA
NATIONAL WEATHER SERVICE SIOUX FALLS SD
200 PM CDT SAT APR 25 2015

NOTE: "FAIR" INDICATES FEW OR NO CLOUDS BELOW 12,000 FEET WITH NO
SIGNIFICANT WEATHER AND/OR OBSTRUCTIONS TO VISIBILITY.


SDZ001>005-009-010-012>017-252000-
NORTHWEST AND NORTH CENTRAL SOUTH DAKOTA

CITY           SKY/WX    TMP DP  RH WIND       PRES   REMARKS
BUFFALO          N/A     48  44  86 SE17      29.66S
FAITH            N/A     48  43  82 SE13      29.75R
MOBRIDGE       CLOUDY    52  44  74 E15       29.75F
$$

SDZ012>016-024>037-041>051-057-063-072>074-252000-
SOUTHWEST AND SOUTH CENTRAL SOUTH DAKOTA

CITY           SKY/WX    TMP DP  RH WIND       PRES   REMARKS
RAPID CTY ARPT CLOUDY    50  46  86 SE16      29.71F FOG
PIERRE         CLOUDY    50  48  93 E12       29.76S
CUSTER         PTSUNNY   56  39  53 S9        29.71F
ELLSWORTH AFB  CLOUDY    49  47  95 SE16      29.70F
PHILIP         CLOUDY    51  47  86 E6        29.74S FOG
PINE RIDGE     CLOUDY    54  47  77 E9        29.72F
SPEARFISH      FAIR      54  46  76 E9        29.69R
WINNER         CLOUDY    57  48  72 E14       29.74S
$$

SDZ004>011-016>023-039-040-252000-
NORTHEAST SOUTH DAKOTA

CITY           SKY/WX    TMP DP  RH WIND       PRES   REMARKS
ABERDEEN       CLOUDY    46  41  82 E10       29.83S HAZE
WATERTOWN      CLOUDY    46  40  79 E10       29.82S
BROOKINGS      CLOUDY    54  45  71 E13       29.80S
SISSETON         N/A     45  42  89 SE12      29.86S
$$

SDZ017-020-022-023-036>040-048>070-252000-
SOUTHEAST SOUTH DAKOTA

CITY           SKY/WX    TMP DP  RH WIND       PRES   REMARKS
SIOUX FALLS    CLOUDY    57  43  59 E18       29.77R
HURON          CLOUDY    58  44  60 E10G18    29.78S
CHAMBERLAIN    CLOUDY    56  46  69 SE10      29.76R
MITCHELL       CLOUDY    53  46  77 E12       29.78S
YANKTON        CLOUDY    57  43  58 E13G21    29.74S
$$

ABBREVIATIONS USED IN REMARKS
   TC - TEMPERATURE IN CELSIUS
  WCI - WIND CHILL INDEX
   HX - HEAT INDEX
  VSB - VISIBILITY



USA.gov is the U.S. government's official web portal to all federal, state and local government web resources and services.